TimeHST,TemperatureF,Dew PointF,Humidity,Sea Level PressureIn,VisibilityMPH,Wind Direction,Wind SpeedMPH,Gust SpeedMPH,PrecipitationIn,Events,Conditions,WindDirDegrees,DateUTC
12:06 AM,69.8,66.2,88,30.07,2.5,South,4.6,-,0.01,Rain,Heavy Rain,180,2012-09-17 10:06:00
12:11 AM,69.8,66.2,88,30.07,3.0,SSW,6.9,-,0.07,Rain,Rain,210,2012-09-17 10:11:00
12:53 AM,69.1,66.0,90,30.05,4.0,SW,8.1,-,0.08,Rain,Heavy Rain,220,2012-09-17 10:53:00
1:53 AM,69.1,66.0,90,30.04,10.0,SSW,4.6,-,0.03,,Mostly Cloudy,210,2012-09-17 11:53:00
2:53 AM,68.0,64.0,87,30.02,10.0,WSW,5.8,-,N/A,,Scattered Clouds,240,2012-09-17 12:53:00
3:53 AM,66.9,64.0,90,30.01,10.0,SW,4.6,-,N/A,,Clear,220,2012-09-17 13:53:00
4:53 AM,66.0,63.0,90,30.01,10.0,SW,4.6,-,N/A,,Mostly Cloudy,230,2012-09-17 14:53:00
5:53 AM,66.0,61.0,84,30.01,10.0,WSW,8.1,-,N/A,,Scattered Clouds,240,2012-09-17 15:53:00
6:53 AM,68.0,61.0,78,30.03,10.0,SSW,4.6,-,N/A,,Mostly Cloudy,210,2012-09-17 16:53:00
7:53 AM,72.0,64.9,78,30.04,10.0,WSW,3.5,-,N/A,,Mostly Cloudy,250,2012-09-17 17:53:00
8:53 AM,75.0,66.0,73,30.05,10.0,SSW,4.6,-,N/A,,Overcast,200,2012-09-17 18:53:00
9:18 AM,71.6,68.0,88,30.07,2.5,North,3.5,-,0.02,Rain,Rain,10,2012-09-17 19:18:00
9:21 AM,71.6,68.0,88,30.06,3.0,WNW,6.9,-,0.03,Rain,Rain,300,2012-09-17 19:21:00
9:53 AM,75.0,68.0,79,30.05,10.0,West,8.1,-,0.04,,Overcast,270,2012-09-17 19:53:00
10:53 AM,79.0,66.0,64,30.04,10.0,WNW,5.8,-,N/A,,Partly Cloudy,290,2012-09-17 20:53:00
11:53 AM,78.1,68.0,71,30.02,10.0,NE,12.7,-,N/A,,Mostly Cloudy,50,2012-09-17 21:53:00
12:07 PM,75.2,69.8,83,30.03,4.0,East,8.1,-,0.00,Rain,Rain,80,2012-09-17 22:07:00
12:53 PM,78.1,66.9,68,30.00,10.0,ENE,6.9,-,0.05,,Mostly Cloudy,60,2012-09-17 22:53:00
1:53 PM,81.0,66.0,60,29.98,10.0,NNE,9.2,-,N/A,,Overcast,30,2012-09-17 23:53:00
2:53 PM,81.0,66.9,62,29.96,10.0,NE,6.9,-,N/A,,Overcast,50,2012-09-18 00:53:00
3:53 PM,79.0,66.0,64,29.96,10.0,NE,6.9,-,N/A,,Overcast,50,2012-09-18 01:53:00
4:53 PM,79.0,64.9,62,29.96,10.0,NE,6.9,-,N/A,,Overcast,40,2012-09-18 02:53:00
5:53 PM,75.9,64.9,69,29.97,10.0,NNE,3.5,-,N/A,,Partly Cloudy,30,2012-09-18 03:53:00
6:53 PM,73.0,66.9,81,29.98,10.0,Calm,Calm,-,N/A,,Scattered Clouds,0,2012-09-18 04:53:00
7:53 PM,73.0,66.9,81,29.99,10.0,WSW,4.6,-,N/A,,Overcast,240,2012-09-18 05:53:00
8:32 PM,71.6,66.2,83,30.00,1.8,Variable,4.6,-,0.00,Rain,Heavy Rain,0,2012-09-18 06:32:00
8:39 PM,71.6,66.2,83,30.01,2.5,Calm,Calm,-,0.08,Rain,Rain,0,2012-09-18 06:39:00
8:46 PM,71.6,66.2,83,30.01,8.0,West,3.5,-,0.11,Rain,Light Rain,260,2012-09-18 06:46:00
8:53 PM,72.0,68.0,87,30.01,10.0,West,5.8,-,0.11,,Overcast,270,2012-09-18 06:53:00
9:53 PM,70.0,66.9,90,30.01,10.0,WSW,5.8,-,N/A,,Overcast,250,2012-09-18 07:53:00
10:53 PM,69.1,64.0,84,30.01,10.0,WSW,5.8,-,N/A,,Scattered Clouds,250,2012-09-18 08:53:00
11:53 PM,68.0,63.0,84,29.99,10.0,SW,5.8,-,N/A,,Partly Cloudy,220,2012-09-18 09:53:00